Home > Weather > Dushanbe > Past weeks

Flag for Tajikistan Weather for the Past 2 Weeks in Dushanbe, Tajikistan

Now
59 °F

Clear.


Feels Like: 58 °F
Forecast: 41 / 62 °F
Wind: 8 mph from East

Location: Dushanbe Airport

Current Time: Feb 7, 2016 at 11:50:50 AM

Latest Report: Feb 7, 2016 at 11:00 AM


Visibility: N/A

Pressure: 30.07 "Hg (27.24 "Hg at 832m altitude)

Humidity: 23%

Dew point: 21 °F

Location of DushanbeLocation

Historic Weather in Dushanbe — Graph

°F

Dushanbe Temperature Yesterday

Maximum temperature yesterday: 61 °F (at 3:30 PM)
Minimum temperature yesterday: 32 °F (at 2:30 AM)
Average temperature yesterday: 44 °F

High & Low Weather Summary for the Past Weeks

 TemperatureHumidityPressure
High64 °F (Jan 23, 3:00 PM)100% (Jan 28, 11:30 PM)30.45 "Hg (Jan 28, 11:30 PM)
Low25 °F (Jan 30, 8:00 AM)16% (Jan 23, 3:00 PM)29.83 "Hg (Jan 25, 4:30 PM)
Average42 °F64%30.19 "Hg
* Reported Jan 23 10:00 AM — Feb 7 10:30 AM, Dushanbe, Weather by CustomWeather, © 2016

Note: Actual official high and low records may vary slightly from our data, if they occured in-between our weather recording intervals... More about our weather records

Advertising

Dushanbe Weather History for the Previous 24 Hours

 ConditionsComfort  
Time TempWeatherWind HumidityBarometerVisibility
10:30 AM
Sun, Feb 7
57 °FClear.10 mph27%30.07 "HgN/A
10:00 AM55 °FClear.10 mph26%30.07 "HgN/A
9:30 AM46 °FClear.1 mph53%30.07 "Hg1 mi
9:00 AM50 °FClear.6 mph35%30.07 "HgN/A
8:30 AM45 °FClear.6 mph42%30.07 "Hg5 mi
8:00 AM43 °FClear.6 mph42%30.07 "HgN/A
7:30 AM39 °FClear.6 mph48%30.04 "Hg6 mi
7:00 AM37 °FClear.6 mph56%30.04 "HgN/A
6:30 AM37 °FClear.6 mph56%30.04 "HgN/A
6:00 AM39 °FClear.3 mph52%30.04 "HgN/A
5:30 AM36 °FClear.No wind65%30.04 "HgN/A
5:00 AM39 °FClear.6 mph52%30.04 "HgN/A
4:30 AM37 °FClear.No wind56%30.04 "HgN/A
4:00 AM39 °FClear.3 mph56%30.04 "HgN/A
3:30 AM37 °FClear.1 mph60%30.04 "HgN/A
3:00 AM37 °FClear.1 mph60%30.04 "HgN/A
2:00 AM39 °FClear.3 mph61%30.07 "HgN/A
1:30 AM39 °FClear.3 mph65%30.07 "HgN/A
1:00 AM37 °FClear.No wind65%30.07 "HgN/A
12:30 AM41 °FClear.1 mph57%30.07 "HgN/A
12:00 AM37 °FClear.1 mph65%30.07 "HgN/A
11:30 PM
Sat, Feb 6
41 °FClear.3 mph61%30.07 "HgN/A
11:00 PM41 °FClear.3 mph61%30.09 "Hg4 mi
10:30 PM43 °FClear.1 mph57%30.09 "Hg6 mi
10:00 PM43 °FClear.1 mph57%30.09 "Hg4 mi
9:30 PM43 °FClear.1 mph53%30.07 "Hg5 mi
9:00 PM43 °FClear.1 mph53%30.07 "Hg5 mi
8:30 PM46 °FClear.3 mph46%30.07 "Hg4 mi
8:00 PM48 °FClear.6 mph43%30.07 "Hg4 mi
7:30 PM48 °FClear.No wind43%30.07 "Hg4 mi
7:00 PM50 °FClear.3 mph43%30.07 "Hg3 mi
6:30 PM52 °FClear.3 mph41%30.07 "Hg4 mi
6:00 PM55 °FClear.No wind36%30.07 "HgN/A
5:30 PM57 °FClear.1 mph33%30.07 "Hg6 mi
5:00 PM59 °FClear.3 mph29%30.07 "HgN/A
4:30 PM59 °FClear.1 mph23%30.07 "HgN/A
4:00 PM61 °FClear.1 mph20%30.07 "HgN/A
3:30 PM61 °FClear.1 mph20%30.07 "HgN/A
3:00 PM59 °FClear.3 mph27%30.07 "HgN/A
2:30 PM59 °FClear.3 mph25%30.09 "HgN/A
2:00 PM59 °FClear.1 mph29%30.09 "HgN/A
1:30 PM57 °FClear.1 mph33%30.12 "HgN/A
1:00 PM55 °FClear.1 mph31%30.12 "HgN/A
12:30 PM54 °FClear.1 mph35%30.15 "Hg4 mi
12:00 PM52 °FClear.3 mph32%30.15 "Hg4 mi
11:30 AM50 °FClear.1 mph43%30.18 "Hg3 mi
11:00 AM48 °FClear.1 mph46%30.18 "Hg2 mi
Weather by CustomWeather, © 2016

See weather overviewHow to use our weather pages